Weather observations for the past three days for
Santa Rosa, Santa Rosa Sonoma County Airport
Imperial (Metric)
Date Time (pdt) Wind (mph) Vis. (mi.) Weather Sky Cond. Temperature (ºF) Relative Humidity Wind Chill (°F) Heat Index (°F) Pressure Precipitation (in)
Air Dwpt 6 hour altimeter (in) sea level (mb) 1 hr 3 hr 6 hr
Max. Min.
17 15:53 W 13 G 18 10.00 Smoke Haze SCT200 84.9 37 18% 82 29.85 1010.1
17 14:53 Vrbl 5 10.00 Smoke Haze CLR 84.9 30.9 14% 82 29.86 1010.6
17 13:53 NW 9 10.00 Smoke Haze FEW200 82.9 33.1 17% 80 29.89 1011.3
17 12:53 N 8 10.00 Smoke Haze FEW250 81 35.1 19% 79 29.9 1011.7
17 11:53 Calm 10.00 Smoke Haze CLR 75.9 36 23% 77 29.91 1012.1
17 10:53 Calm 10.00 Smoke Haze CLR 72 39 73.9 48 30% 29.92 1012.4
17 09:53 N 9 10.00 Smoke Haze CLR 70 39.9 34% 29.92 1012.4
17 08:53 N 14 7.00 Smoke Haze CLR 64.9 41 42% 29.92 1012.6
17 07:53 N 10 8.00 Smoke Haze CLR 61 42.1 50% 29.91 1012.1
17 06:53 Calm 9.00 Smoke Haze CLR 51.1 45 80% 29.89 1011.7
17 05:53 S 3 10.00 Smoke Haze CLR 48 44.1 86% 29.87 1010.8
17 04:53 SE 5 10.00 Smoke Haze CLR 48.9 43 64 48.9 80% 48 29.85 1010.1
17 03:53 NW 3 10.00 Smoke Haze CLR 55 42.1 62% 29.85 1010.1
17 02:53 N 6 10.00 Smoke Haze CLR 54 41 62% 29.86 1010.6
17 01:53 N 8 10.00 Smoke Haze CLR 57 41 55% 29.87 1010.6
17 00:53 N 14 10.00 Smoke Haze CLR 61 42.1 50% 29.87 1010.7
16 23:53 N 9 10.00 Smoke Haze CLR 62.1 43 50% 29.87 1010.9
16 22:53 N 10 10.00 Smoke Haze CLR 64 44.1 84 64 48% 29.88 1011.0
16 21:53 NW 13 10.00 Smoke Haze CLR 66.9 46 47% 29.87 1010.6
16 20:53 NW 17 G 31 10.00 Smoke Haze CLR 70 46.9 44% 29.85 1010.0
16 19:53 NW 21 G 30 10.00 Smoke Haze and Breezy CLR 73.9 44.1 34% 29.85 1010.0
16 18:53 NW 18 G 32 10.00 Smoke Haze FEW034 78.1 43 29% 78 29.83 1009.5
16 17:53 NW 18 G 29 6.00 Smoke Haze BKN040 82 45 27% 80 29.82 1009.1
16 16:53 NW 21 G 33 6.00 Smoke Haze and Breezy SCT034 BKN044 84 43 88 80.1 24% 81 29.83 1009.3
16 15:53 NW 21 G 32 6.00 Smoke Haze and Breezy FEW024 84.9 42.1 22% 82 29.83 1009.3
16 14:53 NW 22 G 31 8.00 Smoke and Breezy SCT039 86 41 20% 83 29.84 1009.7
16 13:53 NW 16 G 29 8.00 Smoke SCT200 86 39 19% 83 29.85 1010.1
16 12:53 NW 15 10.00 Partly Cloudy SCT200 86 36 17% 83 29.86 1010.5
16 11:53 NW 18 G 28 10.00 Fair CLR 84 32 15% 81 29.87 1010.9
16 10:53 N 13 10.00 Fair CLR 80.1 37 81 48.9 21% 79 29.88 1011.2
16 09:53 N 9 10.00 Fair CLR 73.9 42.1 32% 29.89 1011.5
16 08:53 NW 10 10.00 Fair CLR 68 43 40% 29.9 1011.9
16 07:53 Calm 10.00 Fair CLR 59 46.9 64% 29.91 1011.9
16 06:53 Calm 10.00 Fair CLR 52 46.9 83% 29.91 1012.0
16 05:53 S 3 10.00 Fair CLR 48.9 46 90% 29.9 1011.8
16 04:53 Calm 10.00 Fair CLR 51.1 46.9 64.9 50 86% 29.89 1011.5
16 03:53 Calm 10.00 Fair CLR 53.1 46 77% 29.89 1011.3
16 02:53 N 7 10.00 Fair CLR 57.9 44.1 60% 29.9 1011.7
16 01:53 N 12 10.00 Fair CLR 60.1 45 58% 29.91 1012.0
16 00:53 N 9 10.00 Fair CLR 62.1 45 54% 29.91 1012.2
15 23:53 N 9 10.00 Fair CLR 63 46 54% 29.92 1012.3
15 22:53 N 9 10.00 Fair CLR 64.9 45 88 64.9 49% 29.92 1012.3
15 21:53 N 9 10.00 Fair CLR 68 45 44% 29.92 1012.3
15 20:53 N 10 10.00 Fair CLR 71.1 45 39% 29.89 1011.6
15 19:53 NW 14 10.00 Fair CLR 75.9 45 33% 77 29.88 1011.3
15 18:53 N 13 10.00 Fair CLR 82 46.9 29% 80 29.88 1011.2
15 17:53 N 14 10.00 Fair CLR 84.9 46 26% 82 29.88 1011.2
15 16:53 N 13 10.00 Fair CLR 88 45 88 75 22% 85 29.89 1011.3
15 15:53 NW 8 10.00 Fair CLR 88 42.1 20% 84 29.9 1011.9
15 13:53 NW 9 10.00 Fair CLR 86 41 20% 83 29.95 1013.5
15 12:53 N 9 10.00 Fair CLR 82.9 42.1 24% 81 29.97 1014.2
15 11:53 N 12 10.00 Smoke CLR 80.1 42.1 26% 79 29.99 1014.7
15 10:53 N 10 10.00 Smoke CLR 75.9 43 75.9 46 31% 77 30.01 1015.4
15 09:53 NW 10 10.00 Smoke CLR 72 43 35% 30.02 1015.8
15 08:53 Calm 10.00 Smoke CLR 64 46 52% 30.03 1016.0
15 07:53 Calm 10.00 Smoke CLR 59 46 62% 30.02 1015.8
15 06:53 S 3 10.00 Smoke CLR 50 46 86% 30.02 1015.9
15 05:53 S 6 10.00 Smoke CLR 46.9 44.1 90% 45 30.01 1015.5
15 04:53 S 5 10.00 Smoke CLR 46.9 44.1 64.9 46.9 90% 45 30 1015.2
15 03:53 S 3 10.00 Smoke CLR 50 44.1 80% 30.01 1015.5
15 02:53 S 5 10.00 Smoke CLR 50 45 83% 49 30.01 1015.3
15 01:53 SE 5 10.00 Smoke CLR 53.1 45 74% 30.01 1015.5
15 00:53 Calm 10.00 Smoke CLR 55 45 69% 30.01 1015.5
14 23:53 NW 8 10.00 Smoke CLR 59 39 48% 30.02 1015.7
14 22:53 NW 12 10.00 Smoke CLR 64.9 37.9 84 64 37% 30.03 1016.1
14 21:53 W 7 10.00 Smoke CLR 68 37.9 33% 30.01 1015.6
14 20:53 NW 14 G 22 10.00 Smoke CLR 71.1 37.9 30% 29.99 1014.8
14 19:53 NW 14 10.00 Smoke CLR 75 35.1 23% 76 29.98 1014.5
14 18:53 NW 16 10.00 Smoke CLR 80.1 37.9 22% 79 29.95 1013.5
14 17:53 SE 10 10.00 Smoke CLR 81 48.9 33% 80 29.94 1013.3
Date Time (pdt) Wind (mph) Vis. (mi.) Weather Sky Cond. Air Dwpt Max. Min. Relative Humidity Wind Chill (°F) Heat Index (°F) altimeter (in) sea level (mb) 1 hr 3 hr 6 hr
6 hour
Temperature (ºF) Pressure Precipitation (in)